Дата Пункты Температура Давл., мм. Влажн., % Ветер Погодные явления
Воздуха Воды Направл. Скорость
07.02.15 07:00 Одесса -4.0 2.0 761 88 Пн 5 08 часов
07.02.15 04:00 Одесса -3.0 3.0 761 89 Пн 8 05 часов
07.02.15 01:00 Одесса -2.0 3.0 761 87 Пн 8 02 часа
06.02.15 10:00 Одесса -1.0 3.0 761 85 Пн 8 23 часа
06.02.15 07:00 Одесса 1.0 3.0 761 89 Пн-С 9 20 часов
06.02.15 04:00 Одесса 1.0 3.0 762 85 Пн 6 17 часов
06.02.15 01:00 Одесса 1.0 3.0 763 87 Пн 5 14 часов
06.02.15 10:00 Одесса 2.0 3.0 763 84 Пн 5 11 часов
06.02.15 07:00 Одесса 1.0 3.0 763 83 Пн 4 08 часов
06.02.15 04:00 Одесса 1.0 3.0 763 85 Пн 4 05 часов
06.02.15 01:00 Одесса 1.0 3.0 763 84 Пн-З 3 02 часа
05.02.15 10:00 Одесса 2.0 3.0 762 79 Пн-З 2 23 часа
05.02.15 07:00 Одесса 3.0 3.0 762 80 Пн-З 2 20 часов
05.02.15 04:00 Одесса 5.0 3.0 760 82 Пн-З 3 17 часов
05.02.15 01:00 Одесса 6.0 3.0 758 78 Пн-З 3 14 часов
05.02.15 10:00 Одесса 5.0 3.0 757 90 З 3 11 часов
05.02.15 07:00 Одесса 5.0 3.0 755 97 З 2 08 часов
05.02.15 04:00 Одесса 5.0 3.0 754 99 Пд-З 2 05 часов
05.02.15 01:00 Одесса 5.0 3.0 756 99 Пд 4 02 часа
04.02.15 10:00 Одесса 4.0 3.0 757 94 Пд-С 6 23 часа
Количество строк
441 442 443 444 445 446 447 448 449 450
Page 445 of 500